Sturgeon Bay, WI

9:25 PM CDT on March 24, 2017 (GMT -0500)
Door County Cherryland

Weather History for KSUE - January, 2014

Change the Weather History Date:

Wednesday, January 29, 2014

  Actual Average Record
Temperature  
Mean Temperature 8 °F -  
Max Temperature 19 °F 25 °F 49 °F (1914)
Min Temperature -2 °F 9 °F -21 °F (1965)
Degree Days  
Heating Degree Days 56    
Moisture  
Dew Point -8 °F    
Average Humidity 52    
Maximum Humidity 68    
Minimum Humidity 27    
Precipitation  
Precipitation 0.00 in - - ()
Sea Level Pressure  
Sea Level Pressure 29.89 in    
Wind  
Wind Speed 18 mph (SW)    
Max Wind Speed 22 mph    
Max Gust Speed 30 mph    
Visibility 10 miles    
Events      
Averages and records for this station are not official NWS values.
T = Trace of Precipitation, MM = Missing Value Source: NWS Daily Summary

Daily Weather History Graph

Daily Weather History Graph

Search for Another Location

Airport or City:

Trip Planner

Search our weather history database for the weather conditions in past years. The results will help you decide how hot, cold, wet, or windy it might be!

Date:

Astronomy

Jan. 29, 2014 Rise Set
Actual Time 7:12 AM CST 4:53 PM CST
Civil Twilight 6:40 AM CST 5:25 PM CST
Nautical Twilight 6:05 AM CST 6:00 PM CST
Astronomical Twilight 5:31 AM CST 6:34 PM CST
Moon 5:49 AM CST (1/29) 3:53 PM CST (1/29)
Length of Visible Light 10h 44m
Length of Day
9h 41m
Waning Crescent, 2% of the Moon is Illuminated
Jan 29
Waning Crescent
Jan 30
New
Feb 6
First Quarter
Feb 14
Full
Feb 22
Last Quarter

Hourly Weather History & Observations

Time (CST) Temp. Windchill Dew Point Humidity Pressure Visibility Wind Dir Wind Speed Gust Speed Precip Events Conditions
12:15 AM -2.2 °F -25.2 °F -16.6 °F 50% 29.94 in 10.0 mi WSW 20.7 mph 29.9 mph N/A   Overcast
12:35 AM -2.2 °F -25.2 °F -14.8 °F 55% 29.93 in 10.0 mi WSW 20.7 mph 28.8 mph N/A   Overcast
12:55 AM -2.2 °F -24.7 °F -14.8 °F 55% 29.93 in 10.0 mi WSW 19.6 mph 26.5 mph N/A   Overcast
1:15 AM -2.2 °F -25.2 °F -14.8 °F 55% 29.93 in 10.0 mi WSW 20.7 mph 27.6 mph N/A   Overcast
1:35 AM -2.2 °F -25.2 °F -14.8 °F 55% 29.93 in 10.0 mi WSW 20.7 mph 28.8 mph N/A   Overcast
1:55 AM -2.2 °F -25.2 °F -14.8 °F 55% 29.92 in 10.0 mi WSW 20.7 mph 27.6 mph N/A   Overcast
2:15 AM -2.2 °F -23.5 °F -14.8 °F 55% 29.92 in 10.0 mi WSW 17.3 mph 26.5 mph N/A   Mostly Cloudy
2:35 AM -2.2 °F -23.5 °F -14.8 °F 55% 29.91 in 10.0 mi WSW 17.3 mph 24.2 mph N/A   Partly Cloudy
2:55 AM -2.2 °F -23.5 °F -14.8 °F 55% 29.91 in 10.0 mi WSW 17.3 mph 25.3 mph N/A   Mostly Cloudy
3:15 AM -2.2 °F -23.5 °F -14.8 °F 55% 29.91 in 10.0 mi West 17.3 mph 26.5 mph N/A   Overcast
3:35 AM -2.2 °F -24.1 °F -16.6 °F 50% 29.90 in 10.0 mi WSW 18.4 mph 28.8 mph N/A   Overcast
3:55 AM -2.2 °F -25.2 °F -14.8 °F 55% 29.89 in 10.0 mi WSW 20.7 mph 27.6 mph N/A   Overcast
4:15 AM -2.2 °F -25.7 °F -14.8 °F 55% 29.89 in 10.0 mi WSW 21.9 mph 28.8 mph N/A   Overcast
4:35 AM -2.2 °F -24.7 °F -14.8 °F 55% 29.89 in 10.0 mi WSW 19.6 mph 27.6 mph N/A   Mostly Cloudy
4:55 AM -2.2 °F -23.5 °F -11.2 °F 66% 29.89 in 10.0 mi WSW 17.3 mph 24.2 mph N/A   Partly Cloudy
5:15 AM -0.4 °F -22.8 °F -14.8 °F 51% 29.88 in 10.0 mi West 20.7 mph 25.3 mph N/A   Mostly Cloudy
5:35 AM -0.4 °F -22.3 °F -11.2 °F 60% 29.89 in 10.0 mi WSW 19.6 mph 26.5 mph N/A   Overcast
5:55 AM -0.4 °F -23.3 °F -13.0 °F 55% 29.89 in 10.0 mi WSW 21.9 mph 25.3 mph N/A   Overcast
6:15 AM -0.4 °F -21.2 °F -14.8 °F 51% 29.89 in 10.0 mi WSW 17.3 mph 26.5 mph N/A   Scattered Clouds
6:35 AM -0.4 °F -22.8 °F -14.8 °F 51% 29.89 in 10.0 mi WSW 20.7 mph 26.5 mph N/A   Partly Cloudy
6:55 AM -0.4 °F -22.8 °F -14.8 °F 51% 29.90 in 10.0 mi WSW 20.7 mph 25.3 mph N/A   Clear
7:15 AM -0.4 °F -22.8 °F -14.8 °F 51% 29.91 in 10.0 mi WSW 20.7 mph 27.6 mph N/A   Clear
7:35 AM -2.2 °F -24.1 °F -14.8 °F 55% 29.92 in 10.0 mi WSW 18.4 mph 25.3 mph N/A   Clear
7:55 AM -0.4 °F -22.3 °F -14.8 °F 51% 29.92 in 10.0 mi WSW 19.6 mph 29.9 mph N/A   Clear
8:15 AM -0.4 °F -22.3 °F -14.8 °F 51% 29.93 in 9.0 mi WSW 19.6 mph 24.2 mph N/A   Clear
8:35 AM -0.4 °F -21.2 °F -14.8 °F 51% 29.94 in 10.0 mi WSW 17.3 mph 24.2 mph N/A   Clear
8:55 AM -0.4 °F -23.3 °F -14.8 °F 51% 29.93 in 9.0 mi WSW 21.9 mph 26.5 mph N/A   Clear
9:15 AM -0.4 °F -19.2 °F -13.0 °F 55% 29.94 in 10.0 mi WSW 13.8 mph 25.3 mph N/A   Clear
9:35 AM 1.4 °F -19.4 °F -13.0 °F 51% 29.94 in 10.0 mi WSW 18.4 mph 26.5 mph N/A   Clear
9:55 AM 1.4 °F -18.8 °F -11.2 °F 56% 29.94 in 10.0 mi WSW 17.3 mph 24.2 mph N/A   Clear
10:15 AM 1.4 °F -17.6 °F -13.0 °F 51% 29.95 in 10.0 mi WSW 15.0 mph 19.6 mph N/A   Clear
10:35 AM 3.2 °F -15.9 °F -13.0 °F 47% 29.95 in 10.0 mi WSW 16.1 mph 20.7 mph N/A   Clear
10:55 AM 3.2 °F -18.1 °F -11.2 °F 51% 29.94 in 10.0 mi WSW 20.7 mph 26.5 mph N/A   Clear
11:15 AM 5.0 °F -14.2 °F -11.2 °F 47% 29.94 in 10.0 mi WSW 17.3 mph 21.9 mph N/A   Clear
11:35 AM 6.8 °F -11.3 °F -11.2 °F 44% 29.95 in 10.0 mi WSW 16.1 mph - N/A   Clear
11:55 AM 6.8 °F -13.4 °F -9.4 °F 48% 29.94 in 10.0 mi WSW 20.7 mph - N/A   Clear
12:15 PM 6.8 °F -12.4 °F -9.4 °F 48% 29.93 in 10.0 mi WSW 18.4 mph 23.0 mph N/A   Clear
12:35 PM 8.6 °F -10.5 °F -9.4 °F 44% 29.94 in 10.0 mi SW 19.6 mph 25.3 mph N/A   Clear
12:55 PM 8.6 °F -9.5 °F -7.6 °F 48% 29.94 in 10.0 mi WSW 17.3 mph 23.0 mph N/A   Clear
1:15 PM 8.6 °F -10.0 °F -9.4 °F 44% 29.94 in 10.0 mi WSW 18.4 mph 23.0 mph N/A   Clear
1:35 PM 8.6 °F -8.9 °F -7.6 °F 48% 29.94 in 10.0 mi WSW 16.1 mph 24.2 mph N/A   Clear
1:55 PM 10.4 °F -6.6 °F -5.8 °F 48% 29.94 in 10.0 mi WSW 16.1 mph - N/A   Clear
2:15 PM 10.4 °F -6.0 °F -5.8 °F 48% 29.93 in 10.0 mi WSW 15.0 mph 19.6 mph N/A   Clear
2:35 PM 12.2 °F -4.3 °F -7.6 °F 41% 29.92 in 10.0 mi SW 16.1 mph 20.7 mph N/A   Clear
2:55 PM 12.2 °F -3.7 °F -5.8 °F 45% 29.92 in 10.0 mi SSW 15.0 mph - N/A   Clear
3:15 PM 12.2 °F -1.0 °F -5.8 °F 45% 29.92 in 10.0 mi SSW 10.4 mph - N/A   Clear
3:35 PM 12.2 °F -3.1 °F -5.8 °F 45% 29.92 in 10.0 mi SW 13.8 mph 19.6 mph N/A   Clear
3:55 PM 12.2 °F -1.8 °F -4.0 °F 48% 29.91 in 10.0 mi SSW 11.5 mph - N/A   Clear
4:15 PM 12.2 °F -1.0 °F -5.8 °F 45% 29.91 in 10.0 mi SSW 10.4 mph - N/A   Clear
4:35 PM 12.2 °F -1.0 °F -4.0 °F 48% 29.90 in 10.0 mi SSW 10.4 mph - N/A   Clear
4:55 PM 10.4 °F -4.8 °F -2.2 °F 57% 29.90 in 10.0 mi SSW 12.7 mph - N/A   Clear
5:15 PM 10.4 °F -4.1 °F -2.2 °F 57% 29.90 in 10.0 mi SSW 11.5 mph - N/A   Clear
5:35 PM 10.4 °F -4.1 °F -2.2 °F 57% 29.90 in 10.0 mi SSW 11.5 mph - N/A   Clear
5:55 PM 10.4 °F -4.8 °F -2.2 °F 57% 29.91 in 10.0 mi SSW 12.7 mph - N/A   Clear
6:15 PM 10.4 °F -5.4 °F -2.2 °F 57% 29.89 in 10.0 mi South 13.8 mph - N/A   Clear
6:35 PM 12.2 °F -3.7 °F -2.2 °F 53% 29.88 in 10.0 mi South 15.0 mph - N/A   Clear
6:55 PM 12.2 °F -3.1 °F -2.2 °F 53% 29.87 in 10.0 mi South 13.8 mph - N/A   Clear
7:15 PM 12.2 °F -4.8 °F -0.4 °F 57% 29.86 in 10.0 mi South 17.3 mph 23.0 mph N/A   Clear
7:35 PM 12.2 °F -4.3 °F -2.2 °F 53% 29.86 in 10.0 mi South 16.1 mph - N/A   Clear
7:55 PM 12.2 °F -4.3 °F -0.4 °F 57% 29.85 in 10.0 mi South 16.1 mph 21.9 mph N/A   Clear
8:15 PM 12.2 °F -3.7 °F -0.4 °F 57% 29.84 in 10.0 mi South 15.0 mph 20.7 mph N/A   Clear
8:35 PM 12.2 °F -4.3 °F -0.4 °F 57% 29.82 in 10.0 mi South 16.1 mph 20.7 mph N/A   Clear
8:55 PM 15.8 °F -1.5 °F 1.4 °F 53% 29.82 in 10.0 mi South 20.7 mph 26.5 mph N/A   Clear
9:15 PM 15.8 °F -1.1 °F 1.4 °F 53% 29.81 in 10.0 mi South 19.6 mph 23.0 mph N/A   Clear
9:35 PM 17.6 °F 1.3 °F 3.2 °F 53% 29.81 in 10.0 mi South 19.6 mph 25.3 mph N/A   Partly Cloudy
9:55 PM 17.6 °F 1.3 °F 3.2 °F 53% 29.81 in 10.0 mi South 19.6 mph 25.3 mph N/A   Mostly Cloudy
10:15 PM 17.6 °F 1.7 °F -11.2 °F 27% 29.79 in 10.0 mi South 18.4 mph 26.5 mph N/A   Overcast
10:35 PM 17.6 °F 1.7 °F 8.6 °F 68% 29.78 in 10.0 mi South 18.4 mph 26.5 mph N/A   Overcast
10:55 PM 19.4 °F 3.2 °F 6.8 °F 58% 29.77 in 10.0 mi South 20.7 mph 26.5 mph N/A   Overcast
11:15 PM 19.4 °F 3.2 °F 6.8 °F 58% 29.76 in 10.0 mi South 20.7 mph - N/A   Overcast
11:35 PM 19.4 °F 4.5 °F 6.8 °F 58% 29.75 in 10.0 mi South 17.3 mph 26.5 mph N/A   Mostly Cloudy
11:55 PM 19.4 °F 4.5 °F 8.6 °F 63% 29.74 in 10.0 mi South 17.3 mph 24.2 mph N/A   Overcast